Weather Roundup
Issued by NWS Chicago, IL

Home | Current Version | Previous Version | Graphics & Text | Print | Product List | Glossary On
Versions: 1 2 3 4 5 6 7 8 9 10 11 12 13 14 15 16 17 18 19 20 21 22 23 24 25 26 27 28 29 30 31 32 33 34 35 36 37 38 39 40 41 42 43 44 45 46 47 48 49 50
000
NZUS59 KLOT 010210
HRRLOT

CHICAGO AREA WEATHER ROUNDUP
NATIONAL WEATHER SERVICE CHICAGO/ROMEOVILLE IL
900 PM CDT THU JUL 31 2014

NOTE: "FAIR" INDICATES FEW OR NO CLOUDS BELOW 12,000 FEET WITH NO
SIGNIFICANT WEATHER AND/OR OBSTRUCTIONS TO VISIBILITY.

* THESE STATIONS ARE NOT UNDER NWS QUALITY CONTROL. THEY ALSO MAY NOT
  REPORT WEATHER SUCH AS PRECIPITATION OR FOG.

ILZ005-006-012>014-019>023-010300-
NORTHEAST ILLINOIS

CITY           SKY/WX    TMP DP  RH WIND       PRES   REMARKS
OHARE          PTCLDY    74  56  53 W5        30.02S
MIDWAY         PTCLDY    77  59  53 W6        30.03R
AURORA         CLEAR     68  62  81 W3        30.04S
LANSING*       CLEAR     67  60  79 SW5       30.04S
JOLIET*        CLEAR     71  60  68 CALM      30.05R
WAUKEGAN       CLEAR     69  57  65 CALM      30.01R
DUPAGE AIRPORT CLEAR     71  60  68 SW5       30.03S
WHEELING       CLEAR     77  57  50 SW3       30.03S
KANKAKEE*      CLEAR     69  64  83 SW3       30.06R
MORRIS*        PTCLDY    68  64  88 CALM      30.04S
LEWIS AIRPORT* CLEAR     70  60  71 SW7       30.04S
NORTHERLY IS     N/A     78  55  44 W7          N/A
$$

WIZ051-052-058>065-066-070>072-010300-
SOUTHEAST WISCONSIN

CITY           SKY/WX    TMP DP  RH WIND       PRES   REMARKS
MILWAUKEE      PTCLDY    76  58  53 W5        30.01R
KENOSHA*       CLEAR     64  58  80 W7        30.02R
RACINE*        CLEAR     71  59  65 SW3       30.03R
BURLINGTON     CLEAR     63  58  82 SW5       30.02R
WEST BEND      PTCLDY    72  55  56 SW5       30.01R
$$

INZ001>003-010>013-019-020-010300-
NORTHWEST INDIANA

CITY           SKY/WX    TMP DP  RH WIND       PRES   REMARKS
GARY*          PTCLDY    75  61  60 SW7       30.04
MICHIGAN CITY* NOT AVBL
RENSSELAER*    NOT AVBL
VALPARAISO     MOCLDY    71  62  73 SW3       30.05S
$$

LMZ740>746-010300-
SOUTHERN LAKE MICHIGAN

STATION/POSITION TIME  SKY/WX   TEMP WIND        PRES    VSBY
                                AIR  DIR/SP/G
                 (UTC)          (F)  (DEG/KT/KT) (MB)    (MI)
HARRISON CRIB    0200            78  250/ 11/ 14   N/A
BURNHAM HARBOR   0200            78  270/  6/  9   N/A
CALUMET HARBOR   0200            77  220/  2/  5 1015.8R
BURNS HARBOR     NOT AVBL
MICHIGAN CITY    0200            74  180/  7/  8   N/A
$$

ABBREVIATIONS USED IN REMARKS
   TC - TEMPERATURE IN CELSIUS
  WCI - WIND CHILL INDEX
   HX - HEAT INDEX
  VSB - VISIBILITY
$$


USA.gov is the U.S. government's official web portal to all federal, state and local government web resources and services.